Content
SEND FEEDBACK

Daily
Averages
Monthly
Summary
United States of America

YARMOUTH, MASSACHUSETTS


Home > North America > United States > Massachusetts
Elevation: 15 meters     Latitude: 41 40N     Longitude: 070 16W

WEATHER
 
SELECT A DAY
Number of Records: 207,015;   Date Range: 1/1/95 - 7/22/14
 
SHARE

PRINT THIS DATA

[ ← Previous Day ]
WEATHER ALMANAC - 9 FEBRUARY, 2013
[ Next Day → ]
[ °F ]   °C
Weather ElementAverageHighLow
Temperature-6.6 °C-2 °C (5:39 am) (12:56 am)
Dewpoint-12.7 °C-5 °C (3:03 pm) (7:00 pm)
Humidity92 %100 % (2:56 pm)80 % (9:24 pm)
Barometer1005.4 hPa1018.6 hPa (11:56 pm)988.8 hPa (1:56 am)
Wind Speed41 km/h55.5 km/h (5:39 am)
Wind Gust92.5 km/h (9:56 am)
Weather ElementAverage
Visibility2.7 km
Wind DirectionNW (312.6 °)

Weather ElementTotal
Precipitation6.6 mm
Heating Degree Days28.2 (Base 18.3)
Averaged from 54 records on 9 February, 2013
WEATHER CONDITIONS BREAKOUT
WIND DIRECTION BREAKOUT
WEATHER BY HOUR - 9 FEBRUARY, 2013
[ °F ]   °C
Local TimeTemperatureDewpointHumidityBarometerVisibilityWind DirectionWind SpeedGust SpeedPrecipitationEventsConditions
12:56 AM-17.8 °C-17.8 °C989.5 hPaNorth0.51 mm
1:56 AM-17.8 °C-17.8 °C988.8 hPaNorth
2:56 AM-17.8 °C-17.8 °C989.8 hPaNorth
3:56 AM-17.8 °C-17.8 °C991.2 hPaNorth
4:56 AM-17.8 °C-17.8 °C993.2 hPaNorth
5:39 AM-2 °C-17.8 °C993.9 hPa0.8 kmNorth (360°)55.5 km/h81.4 km/hFogLight Freezing Fog
5:56 AM-3.9 °C-17.8 °C994.6 hPa0.8 kmNorth (360°)50.1 km/h74 km/hFogLight Freezing Fog
6:03 AM-4 °C-17.8 °C994.6 hPa0.8 kmNorth (360°)51.8 km/h81.4 km/hFogLight Freezing Fog
6:29 AM-4 °C-17.8 °C995.6 hPa0.3 kmNorth (360°)53.8 km/h83.4 km/h0.25 mmFogLight Freezing Fog
6:40 AM-4 °C-17.8 °C995.9 hPa0.3 kmNorth (360°)42.6 km/h76 km/h0.51 mmFogLight Freezing Fog
6:56 AM-4.4 °C-17.8 °C997.3 hPa0.3 kmNorth (350°)44.4 km/h81.4 km/h0.76 mmFogLight Freezing Fog
7:56 AM-6.1 °C-17.8 °C998.3 hPa0.3 kmNNW (340°)48.1 km/h74 km/h1.02 mmFogLight Freezing Fog
8:05 AM-6 °C-17.8 °C998 hPa0.3 kmNNW (340°)42.6 km/h77.7 km/hFogLight Freezing Fog
8:41 AM-7 °C-17.8 °C1000 hPa0.3 kmNNW (340°)46.3 km/h79.7 km/h0.25 mmFogLight Freezing Fog
8:49 AM-7 °C-17.8 °C999.7 hPa0.3 kmNNW (340°)53.8 km/h83.4 km/h0.25 mmFogLight Freezing Fog
8:56 AM-6.7 °C-17.8 °C999.7 hPa0.3 kmNNW (340°)48.1 km/h83.4 km/h0.25 mmFogLight Freezing Fog
9:56 AM-6.7 °C-17.8 °C1001 hPa0.3 kmNorth (350°)37 km/h92.5 km/hFogLight Freezing Fog
10:24 AM-7 °C-17.8 °C1001 hPa0.3 kmNorth (350°)50.1 km/h79.7 km/hFogLight Freezing Fog
10:32 AM-6 °C-17.8 °C1001.7 hPa0.3 kmNorth (350°)51.8 km/h77.7 km/hFogLight Freezing Fog
10:46 AM-6 °C-17.8 °C1001.4 hPa0.8 kmNorth (350°)44.4 km/h77.7 km/hFogLight Freezing Fog
10:56 AM-6.1 °C-17.8 °C1002 hPa0.3 kmNorth (350°)53.8 km/h83.4 km/hFogLight Freezing Fog
11:16 AM-6 °C-17.8 °C1002 hPa0.3 kmNorth (350°)42.6 km/h79.7 km/hFogLight Freezing Fog
11:24 AM-6 °C-17.8 °C1002.4 hPa0.8 kmNorth (350°)55.5 km/h79.7 km/hFogLight Freezing Fog
11:56 AM-5.6 °C-17.8 °C1002.4 hPa0.8 kmNorth (350°)48.1 km/h72.3 km/h0.25 mmFogLight Freezing Fog
12:03 PM-6 °C-17.8 °C1003 hPa0.3 kmNorth (360°)44.4 km/h72.3 km/h0.25 mmFogLight Freezing Fog
12:56 PM-5.6 °C-17.8 °C1004.1 hPa0.3 kmNorth (350°)40.7 km/h64.9 km/h0.76 mmFogLight Freezing Fog
1:03 PM-6 °C-17.8 °C1004.1 hPa0.3 kmNNW (340°)38.9 km/h68.6 km/hFogLight Freezing Fog
1:56 PM-5.6 °C-17.8 °C1005.4 hPa0.3 kmNorth (350°)46.3 km/h68.6 km/h0.51 mmFogLight Freezing Fog
2:03 PM-6 °C-17.8 °C1005.8 hPa0.3 kmNorth (350°)46.3 km/h74 km/hFogLight Freezing Fog
2:48 PM-6 °C-17.8 °C1007.1 hPa0.3 kmNorth (350°)51.8 km/h76 km/h0.51 mmSnowBlowing Snow
2:56 PM-5.6 °C-5.6 °C100 %1007.1 hPa0.3 kmNorth (350°)50.1 km/h74 km/h0.51 mmSnowBlowing Snow
3:03 PM-5 °C-5 °C100 %1007.5 hPa0.3 kmNorth (350°)37 km/h76 km/hSnowBlowing Snow
3:56 PM-5 °C-5 °C100 %1009.1 hPa0.8 kmNorth (350°)33.3 km/h72.3 km/hSnowBlowing Snow
4:13 PM-5 °C-5 °C100 %1009.5 hPa0.3 kmNorth (350°)46.3 km/h59.2 km/hSnowBlowing Snow
4:52 PM-5 °C-5 °C100 %1010.2 hPa0.8 kmNNW (340°)31.5 km/h62.9 km/hSnowBlowing Snow
4:56 PM-5 °C-5 °C100 %1009.5 hPa0.8 kmNorth (350°)40.7 km/h74 km/hSnowBlowing Snow
5:29 PM-5 °C-6 °C93 %1011.2 hPa1.9 kmNNW (340°)27.8 km/h66.6 km/hSnowBlowing Snow
5:56 PM-5.6 °C-5.6 °C100 %1012.5 hPa2.4 kmNW (320°)33.3 km/h62.9 km/hSnowBlowing Snow
6:03 PM-5 °C-6 °C93 %1012.5 hPa1.9 kmNNW (330°)35.2 km/h57.5 km/hSnowBlowing Snow
6:19 PM-5 °C-6 °C93 %1012.9 hPa1.6 kmNNW (330°)31.5 km/h66.6 km/hSnowBlowing Snow
6:56 PM-5 °C-6.1 °C92 %1013.9 hPa2.4 kmNNW (340°)31.5 km/h51.8 km/hSnowBlowing Snow
7:03 PM-5 °C-6 °C93 %1013.9 hPa1.9 kmNNW (330°)38.9 km/h53.8 km/hSnowBlowing Snow
7:28 PM-5 °C-7 °C86 %1014.2 hPa4 kmNNW (340°)31.5 km/h48.1 km/hSnowBlowing Snow
7:38 PM-5 °C-6 °C93 %1014.6 hPa4.8 kmNNW (340°)37 km/h53.8 km/hSnowBlowing Snow
7:49 PM-5 °C-7 °C86 %1014.9 hPa3.2 kmNNW (340°)31.5 km/h72.3 km/hSnowBlowing Snow
7:56 PM-5 °C-6.1 °C92 %1015.2 hPa2.9 kmNNW (340°)33.3 km/h55.5 km/hSnowBlowing Snow
8:03 PM-5 °C-6 °C93 %1015.2 hPa1.6 kmNNW (340°)33.3 km/h59.2 km/hSnowBlowing Snow
8:46 PM-5 °C-7 °C86 %1015.9 hPa4.8 kmNorth (350°)29.6 km/h51.8 km/hSnowBlowing Snow
8:56 PM-5 °C-6.7 °C88 %1016.3 hPa6.4 kmNNW (340°)38.9 km/h51.8 km/hSnowBlowing Snow
9:24 PM-5 °C-8 °C80 %1016.3 hPa16.1 kmNNW (330°)33.3 km/h61.2 km/hSnowBlowing Snow
9:56 PM-5.6 °C-7.8 °C85 %1017.3 hPa16.1 kmNNW (330°)29.6 km/h44.4 km/hSnowBlowing Snow
10:03 PM-6 °C-8 °C86 %1016.9 hPa16.1 kmNorth (350°)29.6 km/h51.8 km/hSnowBlowing Snow
10:56 PM-6.1 °C-8.3 °C85 %1017.6 hPa16.1 kmNNW (330°)25.9 km/h50.1 km/hSnowBlowing Snow
11:56 PM-6.7 °C-8.9 °C85 %1018.6 hPa16.1 kmNW (320°)27.8 km/h40.7 km/hSnowBlowing Snow
Hourly data recorded from KHYA, located 0 kilometers away from Yarmouth, Massachusetts







STORIES FROM OUR PARTNERS